COSMOS 2499 DEB, 49938

Orbit data source: Space-Track

COSMOS 2499 DEB, 49938 is space debris in LEO originally from a launch on Fri, 23 May 2014 UTC launched from the Plesetsk Missile And Space Complex (PKMTR). Debris objects in space refer to the collection of defunct objects orbiting the Earth. Examples of debris include non-operational satellites, rocket bodies, and fragments generated from explosions, collisions, or faulty payload assembly.

Loading next visibility...
Identifier
49938, 2014-028V
Orbit
LEO
Country
Flag of CISCIS
Related business
Manufacturer
TsNIIKhM
Mission
Spacecraft
Bus & Motor
Unknown
Mass
Unknown
Launch date (UTC)
2014-05-23 (12 years ago)
Launch vehicle
Unknown
Launch site
Plesetsk Missile And Space Complex (PKMTR)
Object type
Payload
Rocket body
Debris
Shape & HBR
Unknown shape, 0.1 m
Radar Cross Section
Small (<0.1 m²)

Expand to show TLE details & history
Last TLE update: 1 week ago

TLE from 1 week ago
0 COSMOS 2499 DEB
1 49938U 14028V   25344.34275904  .00003535  00000-0  92454-2 0  9992
2 49938  82.5685   6.3345 0274284 320.4363  37.7011 13.04039177194589
Epoch: 2025-12-10T08:13Z
TLE epoch observation values (Epoch: 2025-12-10T08:13:34.381Z)
Latitude
Longitude
163.62679°
Altitude
1,085.824 km
Speed
7.387 km/s
True Right ascension
00h 25m 20s
True Declination
0° 00' 00"
Sunlit
Object was in daylight at epoch
Visualization orbit readout
Latitude
Unknown
Longitude
Unknown
Altitude
Unknown
Speed
Unknown
Apparent Right ascension
Unknown
Apparent Declination
Unknown
Sunlit
N/A
Visualization observer readout
Local Sidereal Time
22:17:53
Azimuth
Unknown
Elevation
Unknown
Doppler factor
Unknown
Orbital elements
Apogee altitude
1,452.615 km
Perigee altitude
1,034.513 km
Semi-major axis
7,621.701 km
Eccentricity
0.02743
Inclination
82.5685°
RAAN
6.3345°
Arg. of periapsis
320.4363°
True anomaly
39.67636°
Mean anomaly
37.7011°
Eccentric anomaly
38.68333°
Mean motion
3.26186 °/min
Orbital period
110.37 mins
BSTAR
0.0092454
Loading maneuver chart data...
Computing Atmospheric mass density...
Loading historical data...
Loading historical data...
Loading historical data...
Loading historical data...
Loading historical data...
Loading historical data...
Loading historical data...

Documentation

Showing up to 5 results
|